| time (UTC) | temp F | wind direction | speed MPH | gust MPH | rain 1hr in | rain 24hr in | rain mn in | humidity % | barometer mb |
| 20260505041600 | 60 | 170 | 2.0 | 9.0 | 0.00 | 0.00 | 0.00 | 66 | 1010.0 |
| 20260505041044 | 60 | 232 | 1.0 | 8.0 | 0.00 | 0.00 | 0.00 | 66 | 1010.0 |
| 20260505040546 | 60 | 165 | 1.0 | 8.0 | 0.00 | 0.00 | 0.00 | 65 | 1010.1 |
| 20260505040050 | 60 | 0 | 0.0 | 8.0 | 0.00 | 0.00 | 0.00 | 65 | 1010.1 |
| 20260505035545 | 60 | 241 | 1.0 | 4.0 | 0.00 | 0.00 | 0.00 | 65 | 1010.1 |
| 20260505035045 | 60 | 147 | 1.0 | 5.0 | 0.00 | 0.00 | 0.00 | 65 | 1010.0 |
| 20260505034550 | 59 | 0 | 1.0 | 5.0 | 0.00 | 0.00 | 0.00 | 66 | 1010.1 |
| 20260505034044 | 59 | 0 | 1.0 | 4.0 | 0.00 | 0.00 | 0.00 | 65 | 1010.1 |
| 20260505033545 | 59 | 129 | 1.0 | 4.0 | 0.00 | 0.00 | 0.00 | 65 | 1010.0 |
| 20260505033050 | 59 | 0 | 0.0 | 4.0 | 0.00 | 0.00 | 0.00 | 65 | 1010.1 |
| 20260505032544 | 59 | 195 | 0.0 | 4.0 | 0.00 | 0.00 | 0.00 | 65 | 1010.1 |
| 20260505032043 | 59 | 192 | 0.0 | 3.0 | 0.00 | 0.00 | 0.00 | 64 | 1010.0 |
| 20260505031607 | 59 | 0 | 0.0 | 4.0 | 0.00 | 0.00 | 0.00 | 64 | 1010.0 |
| 20260505031045 | 59 | 0 | 0.0 | 8.0 | 0.00 | 0.00 | 0.00 | 62 | 1010.1 |
| 20260505030543 | 60 | 174 | 0.0 | 8.0 | 0.00 | 0.00 | 0.00 | 61 | 1009.9 |
| 20260505030055 | 60 | 155 | 1.0 | 7.0 | 0.00 | 0.00 | 0.00 | 60 | 1009.9 |
| 20260505025546 | 61 | 178 | 1.0 | 7.0 | 0.00 | 0.00 | 0.00 | 58 | 1010.1 |
| 20260505025044 | 60 | 149 | 2.0 | 6.0 | 0.00 | 0.00 | 0.00 | 59 | 1010.0 |
| 20260505024550 | 60 | 0 | 1.0 | 6.0 | 0.00 | 0.00 | 0.00 | 60 | 1010.2 |
| 20260505024043 | 60 | 0 | 0.0 | 5.0 | 0.00 | 0.00 | 0.00 | 60 | 1010.1 |
| 20260505023547 | 59 | 197 | 1.0 | 6.0 | 0.00 | 0.00 | 0.00 | 60 | 1010.1 |
| 20260505023106 | 59 | 149 | 1.0 | 6.0 | 0.00 | 0.00 | 0.00 | 60 | 1010.2 |
| 20260505022543 | 59 | 0 | 1.0 | 7.0 | 0.00 | 0.00 | 0.00 | 61 | 1010.2 |
| 20260505022045 | 58 | 0 | 0.0 | 7.0 | 0.00 | 0.00 | 0.00 | 61 | 1010.3 |
| 20260505021547 | 58 | 0 | 1.0 | 7.0 | 0.00 | 0.00 | 0.00 | 60 | 1010.3 |
| 20260505021044 | 59 | 0 | 1.0 | 6.0 | 0.00 | 0.00 | 0.00 | 59 | 1010.2 |
| 20260505020547 | 59 | 149 | 1.0 | 6.0 | 0.00 | 0.00 | 0.00 | 59 | 1010.1 |
| 20260505020054 | 58 | 0 | 1.0 | 4.0 | 0.00 | 0.00 | 0.00 | 59 | 1010.1 |
| 20260505015544 | 59 | 141 | 0.0 | 3.0 | 0.00 | 0.00 | 0.00 | 58 | 1010.1 |
| 20260505015044 | 60 | 124 | 0.0 | 6.0 | 0.00 | 0.00 | 0.00 | 56 | 1010.1 |
| 20260505014601 | 60 | 0 | 0.0 | 6.0 | 0.00 | 0.00 | 0.00 | 55 | 1010.1 |
| 20260505014045 | 60 | 145 | 0.0 | 5.0 | 0.00 | 0.00 | 0.00 | 56 | 1010.0 |
| 20260505013543 | 60 | 164 | 0.0 | 4.0 | 0.00 | 0.00 | 0.00 | 55 | 1010.1 |
| 20260505013105 | 60 | 140 | 0.0 | 4.0 | 0.00 | 0.00 | 0.00 | 54 | 1010.0 |
| 20260505012546 | 60 | 159 | 0.0 | 4.0 | 0.00 | 0.00 | 0.00 | 54 | 1010.0 |
| 20260505012044 | 61 | 0 | 0.0 | 4.0 | 0.00 | 0.00 | 0.00 | 52 | 1009.9 |
| 20260505011552 | 62 | 122 | 0.0 | 5.0 | 0.00 | 0.00 | 0.00 | 51 | 1010.0 |
| 20260505011045 | 63 | 0 | 1.0 | 5.0 | 0.00 | 0.00 | 0.00 | 49 | 1009.9 |
| 20260505010545 | 63 | 162 | 0.0 | 3.0 | 0.00 | 0.00 | 0.00 | 48 | 1009.7 |
| 20260505010051 | 64 | 161 | 0.0 | 7.0 | 0.00 | 0.00 | 0.00 | 46 | 1009.8 |
| 20260505005546 | 64 | 168 | 0.0 | 8.0 | 0.00 | 0.00 | 0.00 | 46 | 1009.8 |
| 20260505005043 | 64 | 202 | 1.0 | 8.0 | 0.00 | 0.00 | 0.00 | 46 | 1009.6 |
| 20260505004554 | 64 | 0 | 0.0 | 7.0 | 0.00 | 0.00 | 0.00 | 45 | 1009.6 |
| 20260505004042 | 65 | 135 | 1.0 | 4.0 | 0.00 | 0.00 | 0.00 | 45 | 1009.6 |
| 20260505003544 | 65 | 155 | 0.0 | 8.0 | 0.00 | 0.00 | 0.00 | 44 | 1009.6 |
| 20260505003050 | 65 | 0 | 1.0 | 8.0 | 0.00 | 0.00 | 0.00 | 43 | 1009.5 |
| 20260505002543 | 66 | 178 | 3.0 | 8.0 | 0.00 | 0.00 | 0.00 | 44 | 1009.6 |
| 20260505002044 | 66 | 0 | 1.0 | 8.0 | 0.00 | 0.00 | 0.00 | 44 | 1009.5 |
| 20260505001554 | 66 | 242 | 3.0 | 8.0 | 0.00 | 0.00 | 0.00 | 44 | 1009.5 |
| 20260505001046 | 67 | 201 | 2.0 | 11.0 | 0.00 | 0.00 | 0.00 | 43 | 1009.6 |
| 20260505000543 | 67 | 196 | 2.0 | 15.0 | 0.00 | 0.00 | 0.00 | 43 | 1009.7 |
| 20260505000106 | 67 | 150 | 4.0 | 15.0 | 0.00 | 0.00 | 0.00 | 43 | 1009.7 |
| 20260504235544 | 68 | 162 | 4.0 | 11.0 | 0.00 | 0.00 | 0.00 | 42 | 1009.6 |
| 20260504235045 | 68 | 175 | 4.0 | 10.0 | 0.00 | 0.00 | 0.00 | 42 | 1009.7 |
| 20260504234550 | 68 | 193 | 4.0 | 9.0 | 0.00 | 0.00 | 0.00 | 42 | 1009.5 |
| 20260504234043 | 69 | 0 | 2.0 | 8.0 | 0.00 | 0.00 | 0.00 | 40 | 1009.6 |
| 20260504233543 | 69 | 181 | 2.0 | 9.0 | 0.00 | 0.00 | 0.00 | 40 | 1009.6 |
| 20260504233044 | 70 | 174 | 3.0 | 11.0 | 0.00 | 0.00 | 0.00 | 38 | 1009.5 |
| 20260504232544 | 70 | 163 | 2.0 | 11.0 | 0.00 | 0.00 | 0.00 | 39 | 1009.5 |
| 20260504232043 | 70 | 0 | 3.0 | 11.0 | 0.00 | 0.00 | 0.00 | 37 | 1009.4 |
| 20260504231549 | 71 | 162 | 3.0 | 9.0 | 0.00 | 0.00 | 0.00 | 37 | 1009.4 |
| 20260504231043 | 71 | 173 | 2.0 | 7.0 | 0.00 | 0.00 | 0.00 | 38 | 1009.5 |
| 20260504230544 | 71 | 199 | 2.0 | 10.0 | 0.00 | 0.00 | 0.00 | 38 | 1009.5 |
| 20260504230104 | 72 | 166 | 5.0 | 10.0 | 0.00 | 0.00 | 0.00 | 36 | 1009.4 |
| 20260504225546 | 72 | 109 | 2.0 | 10.0 | 0.00 | 0.00 | 0.00 | 35 | 1009.4 |
| 20260504225043 | 72 | 187 | 2.0 | 10.0 | 0.00 | 0.00 | 0.00 | 36 | 1009.4 |
| 20260504224552 | 73 | 291 | 1.0 | 7.0 | 0.00 | 0.00 | 0.00 | 37 | 1009.4 |
| 20260504224043 | 73 | 161 | 2.0 | 12.0 | 0.00 | 0.00 | 0.00 | 36 | 1009.3 |
| 20260504223543 | 73 | 196 | 2.0 | 12.0 | 0.00 | 0.00 | 0.00 | 36 | 1009.3 |
| 20260504223048 | 73 | 0 | 2.0 | 12.0 | 0.00 | 0.00 | 0.00 | 36 | 1009.4 |
| 20260504222543 | 73 | 228 | 3.0 | 13.0 | 0.00 | 0.00 | 0.00 | 37 | 1009.4 |
| 20260504222043 | 73 | 182 | 2.0 | 13.0 | 0.00 | 0.00 | 0.00 | 36 | 1009.3 |
| 20260504221600 | 73 | 156 | 2.0 | 13.0 | 0.00 | 0.00 | 0.00 | 35 | 1009.4 |
| 20260504221046 | 73 | 174 | 3.0 | 15.0 | 0.00 | 0.00 | 0.00 | 34 | 1009.3 |
| 20260504220544 | 73 | 165 | 2.0 | 15.0 | 0.00 | 0.00 | 0.00 | 36 | 1009.4 |
| 20260504220055 | 73 | 209 | 5.0 | 15.0 | 0.00 | 0.00 | 0.00 | 34 | 1009.5 |
| 20260504215547 | 73 | 222 | 4.0 | 11.0 | 0.00 | 0.00 | 0.00 | 34 | 1009.5 |
| 20260504215046 | 73 | 306 | 5.0 | 16.0 | 0.00 | 0.00 | 0.00 | 39 | 1009.5 |
| 20260504214550 | 73 | 180 | 7.0 | 16.0 | 0.00 | 0.00 | 0.00 | 34 | 1009.6 |
| 20260504214043 | 74 | 113 | 1.0 | 9.0 | 0.00 | 0.00 | 0.00 | 37 | 1009.5 |
| 20260504213545 | 74 | 170 | 2.0 | 15.0 | 0.00 | 0.00 | 0.00 | 35 | 1009.6 |
| 20260504213047 | 74 | 291 | 4.0 | 16.0 | 0.00 | 0.00 | 0.00 | 35 | 1009.6 |
| 20260504212545 | 74 | 170 | 4.0 | 16.0 | 0.00 | 0.00 | 0.00 | 34 | 1009.7 |
| 20260504212046 | 74 | 167 | 4.0 | 12.0 | 0.00 | 0.00 | 0.00 | 35 | 1009.7 |
| 20260504211548 | 74 | 135 | 3.0 | 10.0 | 0.00 | 0.00 | 0.00 | 36 | 1009.7 |
| 20260504211042 | 75 | 269 | 3.0 | 11.0 | 0.00 | 0.00 | 0.00 | 37 | 1009.6 |
| 20260504210544 | 74 | 274 | 3.0 | 12.0 | 0.00 | 0.00 | 0.00 | 37 | 1009.7 |
| 20260504210048 | 74 | 296 | 4.0 | 12.0 | 0.00 | 0.00 | 0.00 | 35 | 1009.7 |
| 20260504205544 | 74 | 208 | 4.0 | 13.0 | 0.00 | 0.00 | 0.00 | 33 | 1009.7 |
| 20260504205044 | 74 | 259 | 2.0 | 13.0 | 0.00 | 0.00 | 0.00 | 36 | 1009.6 |
| 20260504204555 | 73 | 169 | 6.0 | 16.0 | 0.00 | 0.00 | 0.00 | 35 | 1009.7 |
| 20260504204043 | 74 | 282 | 2.0 | 16.0 | 0.00 | 0.00 | 0.00 | 37 | 1009.7 |
| 20260504203546 | 73 | 170 | 7.0 | 15.0 | 0.00 | 0.00 | 0.00 | 36 | 1009.7 |
| 20260504203101 | 73 | 172 | 5.0 | 13.0 | 0.00 | 0.00 | 0.00 | 39 | 1009.7 |
| 20260504202543 | 74 | 282 | 2.0 | 12.0 | 0.00 | 0.00 | 0.00 | 33 | 1009.8 |
| 20260504202044 | 74 | 301 | 3.0 | 12.0 | 0.00 | 0.00 | 0.00 | 35 | 1009.9 |
| 20260504201556 | 73 | 217 | 4.0 | 12.0 | 0.00 | 0.00 | 0.00 | 34 | 1010.1 |
| 20260504201043 | 73 | 144 | 5.0 | 12.0 | 0.00 | 0.00 | 0.00 | 41 | 1010.1 |
| 20260504200544 | 73 | 178 | 4.0 | 12.0 | 0.00 | 0.00 | 0.00 | 34 | 1010.2 |
| 20260504200057 | 74 | 227 | 5.0 | 14.0 | 0.00 | 0.00 | 0.00 | 37 | 1010.1 |
| 20260504195543 | 73 | 269 | 3.0 | 17.0 | 0.00 | 0.00 | 0.00 | 36 | 1010.2 |
| 20260504195044 | 73 | 226 | 5.0 | 17.0 | 0.00 | 0.00 | 0.00 | 36 | 1010.4 |
| 20260504194556 | 73 | 165 | 4.0 | 11.0 | 0.00 | 0.00 | 0.00 | 38 | 1010.4 |
| 20260504194044 | 73 | 286 | 2.0 | 12.0 | 0.00 | 0.00 | 0.00 | 36 | 1010.3 |
| 20260504193543 | 73 | 285 | 5.0 | 16.0 | 0.00 | 0.00 | 0.00 | 38 | 1010.5 |
| 20260504193105 | 73 | 305 | 9.0 | 16.0 | 0.00 | 0.00 | 0.00 | 34 | 1010.6 |
| 20260504192543 | 74 | 259 | 5.0 | 14.0 | 0.00 | 0.00 | 0.00 | 35 | 1010.6 |
| 20260504192043 | 73 | 275 | 5.0 | 14.0 | 0.00 | 0.00 | 0.00 | 39 | 1010.8 |
| 20260504191605 | 73 | 286 | 3.0 | 14.0 | 0.00 | 0.00 | 0.00 | 37 | 1010.7 |
| 20260504191043 | 73 | 113 | 7.0 | 13.0 | 0.00 | 0.00 | 0.00 | 34 | 1010.9 |
| 20260504190544 | 73 | 247 | 5.0 | 12.0 | 0.00 | 0.00 | 0.00 | 35 | 1011.0 |
| 20260504190121 | 73 | 321 | 4.0 | 11.0 | 0.00 | 0.00 | 0.00 | 40 | 1011.2 |
| 20260504185544 | 73 | 242 | 4.0 | 11.0 | 0.00 | 0.00 | 0.00 | 37 | 1011.0 |
| 20260504185043 | 73 | 143 | 3.0 | 13.0 | 0.00 | 0.00 | 0.00 | 37 | 1011.1 |
| 20260504184555 | 73 | 265 | 2.0 | 13.0 | 0.00 | 0.00 | 0.00 | 38 | 1011.2 |
| 20260504184046 | 72 | 265 | 4.0 | 13.0 | 0.00 | 0.00 | 0.00 | 33 | 1011.3 |
| 20260504183543 | 72 | 252 | 5.0 | 14.0 | 0.00 | 0.00 | 0.00 | 37 | 1011.2 |
| 20260504183105 | 72 | 263 | 6.0 | 14.0 | 0.00 | 0.00 | 0.00 | 34 | 1011.3 |
| 20260504182544 | 72 | 20 | 6.0 | 14.0 | 0.00 | 0.00 | 0.00 | 35 | 1011.6 |
| 20260504182045 | 72 | 258 | 8.0 | 14.0 | 0.00 | 0.00 | 0.00 | 34 | 1011.7 |
| 20260504181602 | 72 | 232 | 5.0 | 12.0 | 0.00 | 0.00 | 0.00 | 40 | 1011.7 |
| 20260504181043 | 72 | 311 | 3.0 | 14.0 | 0.00 | 0.00 | 0.00 | 36 | 1011.7 |
| 20260504180543 | 72 | 170 | 5.0 | 14.0 | 0.00 | 0.00 | 0.00 | 40 | 1011.8 |
| 20260504180054 | 71 | 240 | 3.0 | 14.0 | 0.00 | 0.00 | 0.00 | 38 | 1011.7 |
| 20260504175547 | 71 | 227 | 1.0 | 9.0 | 0.00 | 0.00 | 0.00 | 43 | 1011.7 |
| 20260504175043 | 70 | 266 | 2.0 | 9.0 | 0.00 | 0.00 | 0.00 | 35 | 1011.7 |
| 20260504174552 | 70 | 238 | 3.0 | 10.0 | 0.00 | 0.00 | 0.00 | 41 | 1011.8 |
| 20260504174043 | 71 | 232 | 3.0 | 11.0 | 0.00 | 0.00 | 0.00 | 43 | 1011.9 |
| 20260504173544 | 71 | 301 | 4.0 | 11.0 | 0.00 | 0.00 | 0.00 | 41 | 1012.0 |
| 20260504173052 | 71 | 253 | 4.0 | 12.0 | 0.00 | 0.00 | 0.00 | 41 | 1012.1 |
| 20260504172543 | 70 | 309 | 3.0 | 12.0 | 0.00 | 0.00 | 0.00 | 38 | 1012.2 |
| 20260504172048 | 70 | 291 | 4.0 | 12.0 | 0.00 | 0.00 | 0.00 | 38 | 1012.1 |
| 20260504171556 | 71 | 282 | 1.0 | 13.0 | 0.00 | 0.00 | 0.00 | 40 | 1012.2 |
| 20260504171048 | 71 | 183 | 3.0 | 15.0 | 0.00 | 0.00 | 0.00 | 40 | 1012.4 |
| 20260504170547 | 70 | 301 | 5.0 | 15.0 | 0.00 | 0.00 | 0.00 | 37 | 1012.5 |
| 20260504151048 | 67 | 261 | 1.0 | 11.0 | 0.00 | 0.00 | 0.00 | 43 | 1013.5 |
| 20260504150548 | 66 | 357 | 3.0 | 11.0 | 0.00 | 0.00 | 0.00 | 44 | 1013.7 |
| 20260504141043 | 62 | 320 | 4.0 | 10.0 | 0.00 | 0.00 | 0.00 | 52 | 1013.9 |
| 20260504140545 | 62 | 149 | 2.0 | 11.0 | 0.00 | 0.00 | 0.00 | 51 | 1013.8 |
| 20260504130544 | 59 | 0 | 4.0 | 13.0 | 0.00 | 0.00 | 0.00 | 59 | 1014.0 |
| 20260504110543 | 44 | 0 | 0.0 | 2.0 | 0.00 | 0.00 | 0.00 | 91 | 1014.5 |
| 20260504100543 | 39 | 0 | 0.0 | 0.0 | 0.00 | 0.00 | 0.00 | 91 | 1014.6 |
| 20260504100103 | 38 | 0 | 0.0 | 0.0 | 0.00 | 0.00 | 0.00 | 91 | 1014.7 |
| 20260504081600 | 40 | 0 | 0.0 | 0.0 | 0.00 | 0.00 | 0.00 | 86 | 1015.0 |
| 20260504081042 | 40 | 0 | 0.0 | 0.0 | 0.00 | 0.00 | 0.00 | 86 | 1014.9 |
| 20260504080547 | 40 | 0 | 0.0 | 0.0 | 0.00 | 0.00 | 0.00 | 86 | 1014.8 |
| 20260504050546 | 41 | 0 | 0.0 | 0.0 | 0.00 | 0.00 | 0.00 | 79 | 1015.1 |
| 20260504050104 | 41 | 0 | 0.0 | 0.0 | 0.00 | 0.00 | 0.00 | 79 | 1014.9 |
| 20260504045546 | 41 | 0 | 0.0 | 0.0 | 0.00 | 0.00 | 0.00 | 79 | 1015.0 |
| 20260504045045 | 41 | 0 | 0.0 | 0.0 | 0.00 | 0.00 | 0.00 | 78 | 1015.0 |
| 20260504044601 | 41 | 0 | 0.0 | 0.0 | 0.00 | 0.00 | 0.00 | 79 | 1015.0 |
| 20260504044047 | 40 | 0 | 0.0 | 0.0 | 0.00 | 0.00 | 0.00 | 79 | 1015.0 |
| 20260504043547 | 40 | 0 | 0.0 | 0.0 | 0.00 | 0.00 | 0.00 | 80 | 1014.9 |